(251186) = 2006 UQ79 = 2004 FR109

Discovered at Kitt Peak on 2006-10-17 by Spacewatch.

Orbit

Orbit type: Main Belt

Note: WebGL enabled browser required.

epoch2023-09-13.0
epoch JD2460200.5
perihelion date2022-05-16.27565
perihelion JD2459715.77565
argument of perihelion (°)211.43928
ascending node (°)346.13355
inclination (°)4.67484
eccentricity0.0509861
perihelion distance (AU)2.5867217
Tisserand w.r.t. Jupiter3.3
ΔV w.r.t. Earth (km/sec)10.1
semimajor axis (AU)2.7256941
mean anomaly (°)106.16540
mean daily motion (°/day)0.21902220
aphelion distance (AU)2.865
period (years)4.5
P-vector [x]-0.95291806
P-vector [y]-0.25854902
P-vector [z]-0.15842846
Q-vector [x]0.30259818
Q-vector [y]-0.84447873
Q-vector [z]-0.44191630
absolute magnitude16.41
phase slope0.15
uncertainty0
referenceMPEC 2023-R158
observations used330
oppositions15
arc length (days)8027
first opposition used2001
last opposition used2023
residual rms (arc-secs)0.73
perturbers coarse indicatorM-v
perturbers precise indicator003Ek
first observation date used2001-09-19.0
last observation date used2023-09-11.0
computer nameMPCLINUX
JD of orbit computation2456909.171768
perihelion JD uncertainty (days)2.4833E-04
argument of perihelion uncertainty (°)7.8246E-05
ascending node uncertainty (°)5.5081E-05
inclination uncertainty (°)5.9219E-06
eccentricity uncertainty 5.7711E-08
perihelion distance uncertainty (AU)1.4343E-07
Minimum Orbit Intersection Distances (in AU)
for orbit epoch: 2460200.5, reference: E2023-RF8
Mercury2.1507
Venus1.86974
Earth1.5852
Mars0.94233
Jupiter2.09869
Saturn6.29293
Uranus15.8355
Neptune26.9857

Observations

336 total observations over interval: 2001 09 19.20518 – 2023 09 11.277892
These data are available for download (format description).

Date (UT) J2000 RA J2000 Dec Magn Location Ref
2001 09 19.20518 23 06 28.60 -05 19 41.7 20.5   704 – Lincoln Laboratory ETS, New Mexico MPS 344926
2001 09 19.21938 23 06 27.94 -05 19 44.6 20.2   704 – Lincoln Laboratory ETS, New Mexico MPS 344926
2001 09 19.24775 23 06 26.42 -05 19 50.6 19.8   704 – Lincoln Laboratory ETS, New Mexico MPS 344926
2004 03 24.27146 12 25 11.45 -05 34 02.3 19.6 R 699 – Lowell Observatory-LONEOS MPS 104036
2004 03 24.29172 12 25 10.27 -05 33 57.8   699 – Lowell Observatory-LONEOS MPS 104036
2004 03 24.31199 12 25 09.10 -05 33 53.2   699 – Lowell Observatory-LONEOS MPS 104036
2004 03 24.33226 12 25 08.07 -05 33 48.2   699 – Lowell Observatory-LONEOS MPS 104036
2004 03 27.32898 12 22 28.84 -05 22 55.1 19.5   704 – Lincoln Laboratory ETS, New Mexico MPS 104036
2004 03 27.33911 12 22 28.25 -05 22 51.6 19.7   704 – Lincoln Laboratory ETS, New Mexico MPS 104036
2004 03 27.34888 12 22 27.77 -05 22 49.6 19.9   704 – Lincoln Laboratory ETS, New Mexico MPS 104036
2004 03 27.35962 12 22 27.20 -05 22 47.6 20.0   704 – Lincoln Laboratory ETS, New Mexico MPS 104036
2004 03 27.36937 12 22 26.65 -05 22 44.0 19.9   704 – Lincoln Laboratory ETS, New Mexico MPS 104036
2004 04 19.14127 12 04 22.85 -04 01 36.7 20.3 V 691 – Steward Observatory, Kitt Peak-Spacewatch MPS 186557
2004 04 19.16775 12 04 21.83 -04 01 32.1 20.4 V 691 – Steward Observatory, Kitt Peak-Spacewatch MPS 186557
2004 04 19.19475 12 04 20.77 -04 01 27.4 20.5 V 691 – Steward Observatory, Kitt Peak-Spacewatch MPS 186557
2005 08 08.05524 19 54 25.22 -25 56 09.2 18.9 R 807 – Cerro Tololo Observatory, La Serena MPS 186557
2005 08 08.17171 19 54 19.26 -25 56 10.2   807 – Cerro Tololo Observatory, La Serena MPS 186557
2006 10 17.25918 02 01 54.26 +17 43 45.8 20.8 V 691 – Steward Observatory, Kitt Peak-Spacewatch MPS 184309
2006 10 17.27659 02 01 53.32 +17 43 42.5 20.7 V 691 – Steward Observatory, Kitt Peak-Spacewatch MPS 184309
2006 10 17.29401 02 01 52.31 +17 43 39.3 20.7 V 691 – Steward Observatory, Kitt Peak-Spacewatch MPS 184309
2006 10 21.22660 01 58 19.42 +17 30 36.9 20.3 V 691 – Steward Observatory, Kitt Peak-Spacewatch MPS 184309
2006 10 21.24401 01 58 18.43 +17 30 33.5 20.2 V 691 – Steward Observatory, Kitt Peak-Spacewatch MPS 184309
2006 10 21.26142 01 58 17.46 +17 30 29.5 20.7 V 691 – Steward Observatory, Kitt Peak-Spacewatch MPS 184309
2006 10 31.21261 01 49 14.16 +16 52 23.9   691 – Steward Observatory, Kitt Peak-Spacewatch MPS 186557
2006 10 31.22995 01 49 13.20 +16 52 19.6   691 – Steward Observatory, Kitt Peak-Spacewatch MPS 186557
2006 10 31.24730 01 49 12.26 +16 52 15.7   691 – Steward Observatory, Kitt Peak-Spacewatch MPS 186557
2008 01 01.48394 09 20 22.47 +20 27 52.5 20.3 V 691 – Steward Observatory, Kitt Peak-Spacewatch MPS 239497
2008 01 01.50506 09 20 21.95 +20 27 56.0 20.1 V 691 – Steward Observatory, Kitt Peak-Spacewatch MPS 239497
2008 01 01.52618 09 20 21.21 +20 27 57.9 20.7 V 691 – Steward Observatory, Kitt Peak-Spacewatch MPS 239497
2008 01 30.22138 08 57 34.92 +21 47 05.7 19.7 V 703 – Catalina Sky Survey MPS 235512
2008 01 30.22796 08 57 34.66 +21 47 06.3 19.2 V 703 – Catalina Sky Survey MPS 235512
2008 01 30.23447 08 57 34.09 +21 47 07.9 19.9 V 703 – Catalina Sky Survey MPS 235512
2008 01 30.24101 08 57 33.84 +21 47 08.8 19.4 V 703 – Catalina Sky Survey MPS 235512
2008 02 02.28726 08 54 32.22 +21 54 46.1 19.9 V G96 – Mt. Lemmon Survey MPS 236329
2008 02 02.29852 08 54 31.53 +21 54 47.5 19.9 V G96 – Mt. Lemmon Survey MPS 236329
2008 02 02.30411 08 54 31.17 +21 54 48.3 19.9 V G96 – Mt. Lemmon Survey MPS 236329
2008 02 10.32671 08 46 39.79 +22 11 23.4 19.8 V G96 – Mt. Lemmon Survey MPS 237618
2008 02 10.32727 08 46 39.79 +22 11 23.4 19.8 V G96 – Mt. Lemmon Survey MPS 237618
2008 02 10.33840 08 46 39.10 +22 11 24.4 19.7 V G96 – Mt. Lemmon Survey MPS 237618
2008 02 10.33895 08 46 39.10 +22 11 24.5 19.8 V G96 – Mt. Lemmon Survey MPS 237618
2008 02 10.35000 08 46 38.46 +22 11 25.5 19.8 V G96 – Mt. Lemmon Survey MPS 237618
2008 02 10.35053 08 46 38.42 +22 11 25.7 19.6 V G96 – Mt. Lemmon Survey MPS 237618
2008 02 10.36150 08 46 37.77 +22 11 26.6 19.9 V G96 – Mt. Lemmon Survey MPS 237618
2008 02 10.36205 08 46 37.74 +22 11 26.9 19.8 V G96 – Mt. Lemmon Survey MPS 237618
2008 03 12.19852 08 26 46.78 +22 12 21.9 20.9 V G96 – Mt. Lemmon Survey MPS 242181
2008 03 12.20737 08 26 46.60 +22 12 21.3 20.9 V G96 – Mt. Lemmon Survey MPS 242181
2008 03 12.21622 08 26 46.50 +22 12 20.5 20.9 V G96 – Mt. Lemmon Survey MPS 242181
2008 03 12.22497 08 26 46.32 +22 12 19.6 20.7 V G96 – Mt. Lemmon Survey MPS 242181
2008 03 27.11779 08 26 24.32 +21 38 42.6 20.6 V G96 – Mt. Lemmon Survey MPS 244063
2008 03 27.12674 08 26 24.39 +21 38 41.3 20.2 V G96 – Mt. Lemmon Survey MPS 244063
2008 03 27.13579 08 26 24.46 +21 38 39.1 20.8 V G96 – Mt. Lemmon Survey MPS 244063
2008 03 27.14483 08 26 24.57 +21 38 37.8 20.7 V G96 – Mt. Lemmon Survey MPS 244063
2008 03 29.15697 08 26 50.20 +21 32 41.2 21.1 V G96 – Mt. Lemmon Survey MPS 244759
2008 03 29.16262 08 26 50.28 +21 32 40.4 20.9 V G96 – Mt. Lemmon Survey MPS 244759
2008 03 29.16828 08 26 50.31 +21 32 39.5 20.8 V G96 – Mt. Lemmon Survey MPS 244759
2008 03 29.17393 08 26 50.38 +21 32 38.0 21.0 V G96 – Mt. Lemmon Survey MPS 244759
2008 04 05.15389 08 29 08.70 +21 09 39.0 21.5 V G96 – Mt. Lemmon Survey MPS 245791
2008 04 05.15935 08 29 08.88 +21 09 38.0 21.9 V G96 – Mt. Lemmon Survey MPS 245791
2008 04 05.16484 08 29 08.95 +21 09 36.8 21.3 V G96 – Mt. Lemmon Survey MPS 245791
2008 04 05.17029 08 29 09.09 +21 09 35.6 21.5 V G96 – Mt. Lemmon Survey MPS 245791
2010 08 14.30973 23 31 52.46 -03 40 40.6   691 – Steward Observatory, Kitt Peak-Spacewatch MPS 344926
2010 08 14.32736 23 31 51.80 -03 40 42.7   691 – Steward Observatory, Kitt Peak-Spacewatch MPS 344926
2010 08 14.34500 23 31 51.19 -03 40 45.8   691 – Steward Observatory, Kitt Peak-Spacewatch MPS 344926
2010 08 31.474216 23 19 33.960 -04 32 34.94 20.07 i F51 – Pan-STARRS 1, Haleakala MPS 366801
2010 08 31.497059 23 19 32.814 -04 32 40.23 20.36 r F51 – Pan-STARRS 1, Haleakala MPS 366801
2010 08 31.509107 23 19 32.173 -04 32 42.57 20.28 r F51 – Pan-STARRS 1, Haleakala MPS 366801
2010 09 09.89459 23 11 33.05 -05 07 49.1 19.7 V J75 – OAM Observatory, La Sagra MPS 348025
2010 09 09.90751 23 11 32.39 -05 07 51.2 19.7 V J75 – OAM Observatory, La Sagra MPS 348025
2010 09 09.92043 23 11 31.68 -05 07 54.3 18.9 V J75 – OAM Observatory, La Sagra MPS 348025
2010 09 11.26323 23 10 22.15 -05 12 57.8 21.1 V 703 – Catalina Sky Survey MPS 348025
2010 09 11.26952 23 10 21.79 -05 13 01.3 19.8 V 703 – Catalina Sky Survey MPS 348025
2010 09 11.27587 23 10 21.46 -05 13 02.5 19.9 V 703 – Catalina Sky Survey MPS 348025
2010 09 11.28220 23 10 21.03 -05 13 07.8 19.5 V 703 – Catalina Sky Survey MPS 348025
2010 09 11.29882 23 10 20.20 -05 13 06.7 19.7   704 – Lincoln Laboratory ETS, New Mexico MPS 386782
2010 09 11.31097 23 10 19.63 -05 13 09.0 20.1   704 – Lincoln Laboratory ETS, New Mexico MPS 386782
2010 09 11.32309 23 10 18.84 -05 13 13.1 19.9   704 – Lincoln Laboratory ETS, New Mexico MPS 386782
2010 09 11.33523 23 10 18.31 -05 13 15.3 20.4   704 – Lincoln Laboratory ETS, New Mexico MPS 386782
2010 09 13.89983 23 08 06.42 -05 22 52.2 19.8 V J75 – OAM Observatory, La Sagra MPS 348025
2010 09 13.91274 23 08 05.70 -05 22 55.0 19.7 V J75 – OAM Observatory, La Sagra MPS 348025
2010 09 13.92567 23 08 05.05 -05 22 57.8 20.0 V J75 – OAM Observatory, La Sagra MPS 348025
2010 09 30.21837 22 55 22.26 -06 16 27.1 20.3 V G96 – Mt. Lemmon Survey MPS 351014
2010 09 30.22411 22 55 22.00 -06 16 28.0 20.4 V G96 – Mt. Lemmon Survey MPS 351014
2010 09 30.22987 22 55 21.75 -06 16 29.0 20.4 V G96 – Mt. Lemmon Survey MPS 351014
2010 09 30.23566 22 55 21.50 -06 16 29.9 20.3 V G96 – Mt. Lemmon Survey MPS 351014
2010 11 27.09713 22 53 09.45 -05 31 39.7 21.6 V G96 – Mt. Lemmon Survey MPS 362582
2010 11 27.10519 22 53 09.70 -05 31 37.7 21.9 V G96 – Mt. Lemmon Survey MPS 362582
2010 11 27.11331 22 53 09.96 -05 31 34.8 21.9 V G96 – Mt. Lemmon Survey MPS 362582
2010 11 27.12141 22 53 10.24 -05 31 33.8 22.5 V G96 – Mt. Lemmon Survey MPS 362582
2011 11 29.22693 05 21 08.03 +30 17 18.9   691 – Steward Observatory, Kitt Peak-Spacewatch MPS 403721
